Wind_Speed
60 58 62 52 55 50 44 47 49 49 51 48 48 51 52 54 56 60 60 64 69 73 76 80 81 83 80 63 58 35 22 14 15 15 13 14 17 17 22 32 41 42 42 44 44
63 64 63 61 57 56 51 53 53 54 54 57 54 53 54 54 56 57 57 64 68 71 74 76 84 83 79 64 57 31 21 9 11 9 11 15 18 20 23 29 37 33 43 45 46
58 60 62 58 61 60 53 54 52 55 55 54 47 53 51 56 55 55 60 64 67 72 73 78 78 82 75 63 56 30 18 9 4 4 11 16 17 21 18 28 32 32 33 36 38
53 55 56 56 59 57 60 60 60 57 57 57 55 52 51 52 51 57 61 66 66 68 71 75 78 79 73 62 50 25 16 5 6 5 10 13 13 22 22 22 29 29 27 29 31
50 50 53 54 55 57 61 58 56 59 54 53 55 54 52 54 59 60 62 63 64 66 67 69 72 76 69 59 41 21 6 5 8 6 11 9 10 15 16 18 21 23 27 25 28
45 46 43 44 48 48 51 48 45 46 48 52 50 52 51 54 57 57 60 60 58 61 64 65 67 71 63 55 34 14 5 9 10 12 12 12 14 16 19 22 23 25 23 21 17
33 40 41 36 37 37 40 41 42 43 45 48 51 52 50 53 53 57 57 55 57 56 58 60 65 67 58 50 31 11 2 9 15 13 16 17 14 12 15 20 21 18 17 18 19
44 39 38 36 41 40 42 36 36 39 41 43 44 44 45 46 48 50 53 49 51 53 53 58 60 62 54 46 28 13 5 4 5 7 10 10 5 11 15 18 20 25 26 27 20
50 48 43 43 48 46 49 36 37 40 40 42 47 49 45 45 44 46 46 45 47 48 53 55 59 59 54 43 28 9 8 8 6 2 7 7 9 14 14 18 25 32 25 33 27
58 53 54 47 47 50 49 50 43 42 43 33 38 37 42 41 41 43 44 43 45 43 49 52 55 57 55 39 29 13 8 6 6 2 5 11 13 14 18 21 19 31 22 32 29
70 63 61 60 50 53 52 55 56 46 48 46 39 40 43 43 38 43 39 42 39 40 46 48 51 55 54 36 31 17 10 9 8 6 7 11 19 19 16 21 16 19 30 33 31
80 74 70 66 60 58 56 56 57 53 51 50 47 45 40 41 46 47 41 37 37 39 42 43 48 52 50 38 32 16 13 13 13 10 9 12 16 20 20 21 18 17 19 34 37
78 76 73 73 70 64 63 60 59 54 51 49 50 47 47 53 49 43 43 41 35 40 41 41 46 50 46 46 30 24 8 12 12 13 12 10 21 22 24 25 29 22 21 26 38
84 87 86 80 76 74 74 68 65 56 52 50 50 53 53 55 48 43 41 41 40 40 39 42 46 48 46 46 34 27 15 10 15 14 14 13 16 26 27 31 30 27 28 20 33
96 95 94 88 82 74 79 73 68 57 57 66 74 72 71 62 59 47 43 43 43 40 40 40 41 44 46 42 38 26 22 11 13 17 18 20 21 19 25 33 32 32 32 32 28
109 107 101 96 87 89 80 74 71 69 66 73 76 75 73 67 62 53 44 44 41 42 40 40 44 45 41 42 42 28 23 18 15 17 19 22 29 28 23 20 23 30 31 30 30
120 116 113 103 100 105 94 88 82 72 73 79 80 80 77 71 63 56 43 44 42 39 42 41 41 43 46 40 37 31 23 23 20 19 20 22 28 28 27 29 26 25 25 27 29
123 128 118 112 114 111 105 100 94 86 92 87 87 85 81 78 70 64 55 44 44 41 43 41 40 40 44 40 36 34 25 21 19 20 20 23 28 19 22 26 27 24 24 25 30
121 121 128 126 122 130 122 112 100 99 96 93 92 77 66 67 72 65 54 45 45 45 41 41 38 42 46 44 35 37 23 22 18 18 22 24 28 26 24 26 27 29 29 30 28
111 111 113 113 114 118 117 102 83 90 94 89 81 66 63 63 63 62 52 48 44 43 42 39 34 40 48 40 34 36 23 21 23 21 21 24 27 29 28 30 32 31 31 31 29
106 104 99 105 114 119 106 91 82 81 88 83 79 68 63 54 57 51 50 47 44 42 41 37 35 36 44 39 34 36 25 24 23 23 22 23 29 31 31 33 32 35 35 34 34
100 97 94 102 110 99 90 81 75 72 81 76 73 68 61 57 54 54 50 47 43 41 40 38 36 37 40 41 35 34 28 22 19 26 27 28 35 28 32 34 35 38 40 40 38
91 90 95 107 107 87 77 77 75 71 71 71 72 71 66 61 51 58 50 46 43 43 42 40 37 37 39 40 32 31 33 26 21 24 33 36 40 30 32 36 38 38 41 43 42
84 88 96 102 82 76 78 74 70 66 69 67 71 73 69 65 61 59 58 49 47 44 46 42 39 40 41 41 34 37 34 29 25 20 24 32 39 35 32 34 38 39 42 43 42
78 81 88 77 71 71 69 70 72 67 69 70 67 72 72 66 62 63 61 53 50 47 46 45 41 39 43 43 37 37 30 29 29 27 23 28 28 32 27 26 28 31 34 37 36
70 72 73 71 69 75 72 72 70 70 72 68 60 64 74 65 62 65 58 55 51 47 41 40 39 39 42 44 40 37 33 33 33 32 28 26 28 33 28 29 30 33 35 37 38
59 66 66 66 68 75 69 75 73 74 68 65 62 61 64 63 66 62 57 54 49 45 42 42 41 40 42 46 39 41 37 31 28 29 27 23 29 32 30 29 31 31 32 35 38
Wind_Direction
259 264 265 271 269 269 269 274 281 284 285 287 288 293 296 298 301 301 307 311 313 315 317 321 327 334 338 337 336 324 297 280 283 286 254 212 198 202 206 214 218 217 220 218 220
263 261 268 266 270 272 277 281 278 281 286 285 290 292 295 297 301 301 307 312 313 316 319 321 328 334 339 339 339 318 287 275 289 281 226 200 194 190 196 209 212 216 221 218 217
266 266 267 274 269 270 274 277 280 287 289 288 289 288 292 296 297 300 307 310 312 316 321 323 329 335 340 340 340 317 282 279 285 228 204 195 192 182 194 205 208 210 218 221 218
264 268 270 273 273 270 273 277 278 283 282 282 283 285 291 296 298 302 305 310 310 316 319 323 332 339 342 342 340 324 309 274 163 141 166 190 195 200 192 193 204 205 211 216 218
261 264 266 268 271 272 274 276 276 277 276 279 278 284 288 291 296 299 306 311 315 316 321 325 332 339 342 342 339 327 346 115 170 171 170 176 183 186 180 195 195 192 200 206 214
261 262 267 267 267 271 270 273 276 275 275 276 281 284 291 292 296 301 306 310 313 317 323 330 335 341 342 341 338 325 114 111 139 149 137 152 146 153 168 173 188 189 190 199 201
269 269 265 265 270 274 277 269 270 275 275 278 281 288 291 292 297 301 304 311 313 318 325 331 336 343 342 342 338 340 151 165 142 151 156 172 174 162 163 180 189 178 164 163 186
261 268 267 258 275 278 286 272 267 268 274 280 284 292 295 296 299 299 304 308 313 320 327 335 337 343 342 340 335 347 301 259 246 169 194 181 192 192 194 187 176 175 169 153 190
258 260 256 270 270 275 279 271 268 272 276 278 282 287 291 295 298 298 302 309 314 322 327 335 335 347 344 338 338 341 345 309 251 242 250 222 227 201 172 172 175 176 184 175 177
254 254 256 258 265 273 272 271 274 269 281 283 296 300 292 297 294 296 303 309 312 324 327 336 334 345 346 336 334 314 305 309 303 39 267 218 211 195 165 171 190 189 198 192 194
250 253 253 258 258 267 270 268 268 265 275 285 290 294 301 300 297 299 303 308 317 326 327 333 337 345 348 333 331 327 286 285 293 309 331 231 209 194 182 186 197 218 211 207 197
248 249 253 254 254 260 265 263 263 265 269 285 292 290 297 299 297 297 304 310 317 321 324 328 335 342 347 335 330 323 297 286 278 292 289 228 223 223 199 200 203 207 232 217 211
250 247 250 257 255 253 261 262 258 259 265 276 287 287 294 295 301 300 292 303 311 315 320 323 330 337 346 346 324 318 310 273 268 267 269 251 221 227 231 210 210 216 220 229 227
251 252 252 252 256 253 262 259 253 255 256 268 279 285 291 295 294 292 296 298 305 311 315 318 324 335 341 345 326 320 303 266 253 250 255 256 233 230 234 228 223 225 228 216 230
246 247 250 255 252 253 256 251 247 248 254 262 278 284 283 285 287 287 289 292 302 304 308 313 321 331 338 346 338 313 309 272 251 251 250 250 254 239 233 237 239 240 245 239 237
246 247 247 247 247 250 249 242 244 246 257 265 271 276 279 275 280 287 283 292 297 300 304 307 315 323 332 336 341 317 306 279 255 248 245 244 245 254 246 241 239 246 252 255 254
244 247 246 244 247 248 244 245 246 245 255 264 266 270 271 271 273 281 278 285 291 291 298 301 310 320 331 341 340 326 297 298 267 246 247 253 254 252 247 243 253 258 253 256 258
244 242 244 243 247 247 242 244 249 251 257 260 264 265 265 265 269 275 276 279 283 286 293 297 306 316 327 337 339 332 298 288 285 261 251 255 260 247 240 244 252 254 258 259 262
242 243 243 243 247 246 244 241 251 250 250 257 258 256 253 257 262 265 272 270 279 281 285 292 301 312 320 329 336 334 298 278 273 256 252 243 248 248 246 254 256 250 251 258 263
241 242 242 241 242 245 244 243 240 245 246 250 250 243 246 251 254 258 259 265 269 276 283 289 296 308 317 330 335 333 299 275 264 264 248 242 246 252 247 252 260 257 256 259 259
239 238 237 240 240 241 241 241 237 238 241 243 242 237 235 244 246 246 253 256 263 274 275 282 294 307 314 328 336 331 308 278 259 257 254 246 245 246 249 255 254 259 265 267 267
239 233 236 234 237 239 235 235 234 233 235 236 232 227 226 228 239 242 244 247 259 265 272 281 292 302 310 322 329 327 318 280 265 251 248 247 248 244 252 254 255 260 266 268 269
235 232 229 231 231 232 229 228 228 223 231 229 225 223 223 229 231 241 240 248 250 257 267 278 286 296 304 315 327 326 326 293 271 263 249 247 252 249 252 257 260 261 265 266 268
232 230 228 229 227 226 220 218 220 217 225 226 222 221 223 226 226 237 239 243 247 253 265 274 284 292 297 307 315 329 320 301 278 266 265 260 259 255 255 259 261 263 260 263 267
231 229 230 229 223 219 212 207 208 210 220 218 221 222 221 226 229 238 239 240 245 250 262 273 280 285 292 300 310 327 311 309 284 272 264 263 263 259 257 259 266 267 266 265 264
228 228 229 220 214 211 206 201 200 210 214 214 218 224 222 224 230 237 236 238 244 252 265 268 270 280 289 296 303 316 315 312 300 276 271 273 267 266 267 263 262 263 265 268 269
226 224 221 211 210 208 198 198 198 206 211 211 215 218 222 224 228 230 231 236 241 251 258 264 270 278 285 293 302 306 318 309 308 274 272 268 264 266 265 267 264 262 264 266 270
Height
10733 10734 10735 10738 10739 10740 10740 10740 10739 10738 10738 10736 10735 10732 10731 10729 10722 10716 10711 10705 10698 10691 10683 10675 10664 10651 10635 10621 10610 10600 10594 10592 10592 10591 10592 10593 10596 10602 10608 10616 10625 10636 10641 10650 10656
10722 10724 10726 10728 10730 10731 10731 10732 10731 10730 10730 10729 10728 10724 10723 10722 10716 10708 10704 10700 10693 10686 10678 10668 10658 10645 10628 10614 10604 10594 10590 10588 10589 10589 10590 10592 10596 10600 10605 10611 10620 10629 10633 10640 10649
10710 10712 10714 10716 10719 10721 10722 10723 10723 10721 10720 10720 10718 10716 10716 10714 10708 10702 10699 10694 10688 10681 10673 10664 10653 10640 10623 10611 10600 10591 10587 10587 10587 10587 10589 10592 10595 10598 10604 10610 10618 10625 10632 10640 10647
10699 10701 10703 10705 10707 10710 10711 10713 10714 10713 10712 10710 10708 10708 10709 10707 10701 10697 10692 10690 10683 10676 10668 10660 10648 10635 10619 10609 10599 10591 10588 10586 10587 10588 10589 10592 10595 10599 10602 10609 10617 10626 10632 10638 10643
10689 10691 10693 10695 10697 10698 10701 10702 10704 10704 10702 10701 10698 10700 10702 10699 10696 10692 10687 10683 10678 10672 10664 10657 10647 10632 10616 10608 10599 10592 10589 10588 10587 10589 10591 10594 10596 10600 10605 10610 10617 10625 10631 10636 10641
10678 10680 10683 10685 10687 10688 10690 10692 10693 10694 10693 10690 10693 10693 10693 10692 10689 10686 10682 10677 10673 10668 10660 10654 10644 10630 10616 10608 10599 10593 10591 10591 10591 10592 10593 10596 10599 10602 10606 10610 10616 10624 10630 10635 10640
10667 10670 10673 10675 10677 10678 10681 10683 10684 10685 10685 10685 10685 10686 10687 10685 10683 10679 10676 10673 10668 10663 10657 10651 10642 10629 10616 10609 10601 10596 10594 10595 10593 10594 10595 10596 10599 10603 10607 10613 10617 10625 10631 10634 10638
10658 10660 10662 10665 10668 10670 10672 10674 10677 10677 10677 10677 10678 10679 10680 10677 10676 10672 10670 10668 10664 10659 10653 10648 10639 10628 10616 10610 10603 10598 10597 10597 10595 10595 10597 10600 10602 10604 10608 10614 10621 10625 10629 10633 10640
10645 10648 10652 10655 10658 10662 10665 10667 10668 10668 10669 10669 10670 10672 10672 10671 10669 10666 10664 10663 10659 10656 10650 10644 10637 10626 10616 10610 10606 10601 10598 10598 10598 10598 10599 10602 10604 10606 10611 10615 10620 10625 10628 10633 10634
10632 10635 10639 10642 10647 10651 10655 10657 10659 10660 10661 10662 10663 10665 10664 10663 10662 10661 10660 10658 10655 10651 10647 10641 10634 10626 10616 10610 10606 10602 10600 10600 10601 10600 10600 10600 10603 10606 10611 10616 10620 10622 10626 10630 10634
10615 10619 10624 10629 10633 10638 10644 10645 10648 10651 10653 10655 10656 10658 10657 10658 10656 10654 10654 10653 10650 10647 10642 10638 10633 10626 10617 10611 10606 10602 10600 10599 10600 10601 10600 10602 10602 10604 10609 10613 10618 10622 10624 10626 10631
10597 10603 10608 10615 10620 10624 10628 10633 10636 10642 10645 10647 10648 10649 10651 10652 10651 10649 10648 10648 10646 10644 10640 10636 10631 10625 10617 10610 10607 10601 10600 10599 10599 10600 10600 10602 10603 10605 10608 10612 10616 10619 10623 10627 10629
10577 10584 10590 10600 10607 10607 10613 10621 10623 10631 10637 10636 10640 10640 10644 10645 10647 10644 10643 10642 10642 10640 10637 10632 10629 10624 10617 10610 10605 10601 10598 10598 10598 10599 10599 10601 10603 10604 10607 10611 10614 10618 10622 10625 10628
10554 10562 10570 10582 10590 10590 10598 10604 10611 10620 10625 10625 10630 10633 10637 10637 10639 10639 10638 10637 10637 10635 10633 10628 10625 10621 10615 10609 10603 10599 10596 10595 10596 10597 10597 10598 10600 10603 10604 10607 10611 10614 10618 10621 10625
10528 10537 10548 10563 10570 10572 10580 10586 10597 10605 10614 10615 10620 10626 10628 10631 10631 10634 10634 10632 10632 10630 10629 10624 10621 10617 10613 10606 10601 10597 10594 10592 10592 10594 10595 10596 10597 10599 10601 10604 10606 10609 10612 10616 10620
10501 10508 10520 10542 10548 10549 10560 10566 10578 10589 10605 10608 10612 10613 10618 10619 10623 10626 10627 10625 10626 10624 10623 10619 10616 10613 10609 10604 10598 10594 10592 10589 10588 10589 10591 10593 10593 10592 10597 10600 10601 10603 10606 10609 10613
10470 10476 10491 10512 10522 10520 10537 10546 10559 10580 10590 10593 10597 10602 10607 10609 10614 10617 10618 10619 10620 10618 10617 10614 10611 10608 10605 10600 10594 10590 10588 10587 10585 10585 10586 10587 10587 10590 10590 10592 10595 10596 10598 10601 10603
10430 10441 10458 10483 10486 10489 10509 10522 10545 10573 10573 10578 10581 10587 10594 10595 10604 10608 10608 10611 10612 10611 10610 10608 10606 10604 10600 10596 10591 10586 10583 10582 10581 10581 10582 10582 10581 10585 10587 10590 10591 10592 10592 10594 10595
10391 10406 10426 10453 10454 10453 10474 10502 10540 10550 10554 10556 10565 10574 10581 10584 10591 10597 10598 10601 10602 10603 10603 10600 10600 10598 10596 10592 10586 10582 10579 10578 10577 10576 10576 10577 10577 10578 10581 10583 10585 10587 10587 10587 10589
10356 10374 10396 10411 10418 10417 10439 10488 10515 10525 10533 10536 10547 10561 10567 10572 10579 10583 10588 10590 10592 10594 10594 10594 10593 10591 10589 10587 10582 10578 10574 10573 10573 10572 10571 10571 10572 10572 10576 10577 10578 10579 10581 10582 10583
10318 10338 10369 10379 10379 10376 10423 10474 10493 10504 10509 10520 10532 10547 10553 10562 10565 10571 10577 10580 10583 10584 10585 10585 10585 10585 10583 10581 10577 10573 10570 10568 10568 10568 10568 10568 10566 10567 10570 10571 10572 10572 10573 10573 10574
10288 10319 10342 10340 10338 10374 10421 10456 10472 10483 10485 10502 10517 10531 10540 10547 10554 10559 10565 10569 10573 10575 10576 10577 10577 10578 10576 10575 10572 10568 10564 10563 10562 10562 10562 10561 10556 10562 10564 10565 10565 10566 10566 10567 10568
10270 10297 10302 10299 10312 10363 10414 10432 10449 10462 10469 10485 10500 10513 10526 10534 10544 10548 10553 10559 10564 10565 10566 10570 10570 10570 10570 10569 10566 10562 10558 10556 10555 10554 10554 10553 10548 10555 10555 10556 10555 10557 10557 10556 10558
10247 10263 10268 10269 10333 10363 10380 10411 10432 10447 10456 10472 10484 10498 10511 10522 10532 10536 10540 10549 10552 10555 10557 10562 10562 10562 10563 10562 10560 10558 10554 10549 10549 10547 10546 10545 10543 10545 10546 10546 10547 10547 10547 10548 10549
10227 10244 10256 10295 10322 10346 10372 10395 10412 10431 10441 10457 10471 10487 10499 10509 10519 10521 10527 10536 10541 10545 10549 10554 10553 10554 10554 10554 10553 10551 10547 10544 10542 10540 10540 10536 10537 10535 10538 10538 10538 10538 10539 10540 10540
10215 10235 10253 10284 10309 10325 10350 10377 10400 10413 10427 10448 10463 10472 10483 10496 10505 10507 10516 10524 10530 10537 10541 10544 10544 10545 10545 10545 10546 10545 10542 10540 10535 10534 10533 10533 10530 10526 10530 10530 10530 10531 10530 10529 10528
10214 10223 10243 10273 10290 10305 10344 10365 10383 10399 10417 10433 10444 10452 10469 10481 10483 10492 10503 10512 10521 10528 10531 10534 10536 10537 10537 10537 10537 10534 10535 10533 10531 10527 10527 10526 10521 10520 10521 10521 10521 10522 10521 10520 10518